Weather History for Joplin, MO

Change the Weather History Date:

Saturday, December 29, 2012

  Actual Average Record
Temperature  
Mean Temperature 28 °F 35 °F  
Max Temperature 36 °F 45 °F 69 °F (1984)
Min Temperature 19 °F 25 °F -9 °F (1983)
Degree Days  
Heating Degree Days 37 30  
Month to date heating degree days 649 801  
Since 1 July heating degree days 1435 1558  
Cooling Degree Days 0 0  
Month to date cooling degree days 0 0  
Year to date cooling degree days 2106 1698  
Moisture  
Dew Point 14 °F    
Average Humidity 60    
Maximum Humidity 77    
Minimum Humidity 43    
Precipitation  
Precipitation 0.00 in 0.07 in 1.04 in (1990)
Month to date precipitation 0.89 2.67  
Year to date precipitation 37.85 46.40  
Snow  
Snow 0.00 in - - ()
Month to date snowfall T  
Snow Depth 0.00 in    
Sea Level Pressure  
Sea Level Pressure 30.30 in    
Wind  
Wind Speed 9 mph (West)    
Max Wind Speed 17 mph    
Max Gust Speed 21 mph    
Visibility 9 miles    
Events      
T = Trace of Precipitation, MM = Missing Value Source: NWS Daily Summary

Daily Weather History Graph

Daily Weather History Graph

Search for Another Location

Airport:

Trip Planner

Search our weather history database for the weather conditions in past years. The results will help you decide how hot, cold, wet, or windy it might be!

Date:

Astronomy

Dec. 29, 2012 Rise Set
Actual Time 7:31 AM CST 5:09 PM CST
Civil Twilight 7:02 AM CST 5:38 PM CST
Nautical Twilight 6:29 AM CST 6:11 PM CST
Astronomical Twilight 5:57 AM CST 6:42 PM CST
Moon 6:41 PM CST (12/29) 8:07 AM CST (12/29)
Length of Visible Light 10h 36m
Length of Day
9h 38m
Full, 98% of the Moon is Illuminated
Dec 29
Full
Jan 4
Last Quarter
Jan 11
New
Jan 18
First Quarter
Jan 26
Full

Hourly Weather History & Observations

Time (CST) Temp. Windchill Dew Point Humidity Pressure Visibility Wind Dir Wind Speed Gust Speed Precip Events Conditions
12:53 AM 21.0 °F 9.9 °F 14.0 °F 74% 30.13 in 10.0 mi WNW 10.4 mph - N/A   Clear
1:38 AM 19.4 °F 6.6 °F 14.0 °F 80% 30.12 in 10.0 mi WNW 12.7 mph - N/A   Mostly Cloudy
1:53 AM 19.9 °F 7.9 °F 12.9 °F 74% 30.15 in 9.0 mi WNW 11.5 mph - N/A   Mostly Cloudy
2:53 AM 19.9 °F 9.3 °F 14.0 °F 78% 30.17 in 9.0 mi NW 9.2 mph - N/A   Overcast
3:53 AM 21.0 °F 9.9 °F 14.0 °F 74% 30.19 in 9.0 mi WNW 10.4 mph - N/A   Overcast
4:53 AM 21.0 °F 9.3 °F 14.0 °F 74% 30.20 in 9.0 mi WNW 11.5 mph - N/A   Overcast
5:53 AM 21.0 °F 8.1 °F 14.0 °F 74% 30.24 in 9.0 mi NNW 13.8 mph 20.7 mph N/A   Overcast
6:53 AM 21.0 °F - 14.0 °F 74% 30.27 in 8.0 mi North - - N/A   Overcast
7:53 AM 21.0 °F 11.4 °F 14.0 °F 74% 30.30 in 7.0 mi WNW 8.1 mph - N/A   Overcast
8:53 AM 19.9 °F 10.1 °F 14.0 °F 78% 30.33 in 7.0 mi West 8.1 mph - N/A   Mostly Cloudy
9:53 AM 21.0 °F 11.4 °F 15.1 °F 78% 30.35 in 8.0 mi West 8.1 mph - N/A   Partly Cloudy
10:53 AM 25.0 °F 14.2 °F 15.1 °F 66% 30.37 in 10.0 mi West 11.5 mph - N/A   Clear
11:53 AM 28.0 °F 18.1 °F 15.1 °F 58% 30.35 in 10.0 mi WNW 11.5 mph 16.1 mph N/A   Clear
12:53 PM 30.9 °F 22.2 °F 15.1 °F 52% 30.33 in 10.0 mi WNW 10.4 mph - N/A   Clear
1:53 PM 33.1 °F 24.9 °F 14.0 °F 46% 30.32 in 10.0 mi West 10.4 mph - N/A   Clear
2:53 PM 35.1 °F 26.9 °F 15.1 °F 44% 30.33 in 10.0 mi West 11.5 mph - N/A   Clear
3:53 PM 35.1 °F 29.3 °F 15.1 °F 44% 30.35 in 10.0 mi West 6.9 mph - N/A   Clear
4:53 PM 33.8 °F 27.0 °F 15.8 °F 48% 30.33 in 10.0 mi West 8.1 mph - N/A   Clear
5:53 PM 28.9 °F 23.9 °F 14.0 °F 54% 30.37 in 10.0 mi SW 4.6 mph - N/A   Clear
6:53 PM 24.8 °F 17.9 °F 14.0 °F 64% 30.34 in 10.0 mi South 5.8 mph - N/A   Clear
7:53 PM 25.0 °F 18.1 °F 14.0 °F 63% 30.39 in 10.0 mi South 5.8 mph - N/A   Clear
8:53 PM 21.9 °F 13.4 °F 14.0 °F 72% 30.38 in 10.0 mi SSW 6.9 mph - N/A   Clear
9:53 PM 24.1 °F 14.4 °F 15.1 °F 69% 30.39 in 10.0 mi SSW 9.2 mph - N/A   Clear
10:53 PM 23.0 °F 13.9 °F 15.1 °F 72% 30.41 in 10.0 mi SSW 8.1 mph - N/A   Clear
11:53 PM 21.2 °F 12.6 °F 14.0 °F 74% 30.38 in 10.0 mi SSW 6.9 mph - N/A   Clear